Location: Tucson
(32.2217°N, 110.9265°W)
Time: 12:48:19
(UTC-07:00)

A-11 Canister half - Pass Details

Date: 03 November 2021
Orbit: 1516 x 1684 km, 47.2° (Epoch: 04 December)

Event Time Altitude Azimuth Distance (km) Brightness Sun altitude
Rises 17:52:10 0° 281° (WNW) 4,934 13.0 -5.0°
Reaches altitude 10° 17:55:50 10° 291° (WNW) 3,942 12.1 -5.8°
Maximum altitude 18:04:48 34° 353° (N) 2,485 10.1 -7.6°
Drops below altitude 10° 18:13:37 10° 56° (ENE) 3,866 10.5 -9.4°
Enters shadow 18:14:10 - 58° (ENE) 4,009 10.6 -9.6°
